Regional Weather Roundup
Issued by NWS

Home | Current Version | Previous Version | Graphics & Text | Print | Product List | Glossary On
Versions: 1 2 3 4 5 6 7 8 9 10 11 12 13 14 15 16 17 18 19 20 21 22 23 24 25 26 27 28 29 30 31 32 33 34 35 36 37 38 39 40 41 42 43 44 45 46 47 48 49 50
000
ASUS45 KTFX 231519
RWRMT
MONTANA HOURLY WEATHER ROUNDUP
NATIONAL WEATHER SERVICE GREAT FALLS MT
919 AM MDT WED APR 23 2014

NOTE: "FAIR" INDICATES FEW OR NO CLOUDS BELOW 12000 FEET WITH NO
SIGNIFICANT WEATHER AND/OR OBSTRUCTIONS TO VISIBILITY.

* THESE STATIONS ARE NOT UNDER NWS QUALITY CONTROL. THEY DO NOT
   REPORT WEATHER SUCH AS PRECIPITATION OR FOG.

MTZ001>007-043-231600-
WEST OF THE DIVIDE
CITY           SKY/WX    TMP DP  RH WIND       PRES   REMARKS
KALISPELL      CLOUDY    41  27  58 SE10      29.76F
MISSOULA       CLOUDY    41  28  60 S7        29.85S
BUTTE          CLOUDY    30  19  64 W5        29.82R WCI  25
MULLAN PASS    SNOW      25  25 100 VRB6      29.75F VSB 1/2  WCI  18
* ESSEX        N/A       38  21  50 SE6G14     N/A   WCI  33
* LINCOLN      N/A       33  23  67 SW6G21     N/A   WCI  27
* LOOKOUT PASS N/A       30  28  92 NW3        N/A
* PLAINS APT   PTCLDY    45  27  49 S5        29.84F
* POLSON       N/A       37  27  67 S2         N/A
* RONAN APT    PTCLDY    39  27  62 N/A        N/A
* SEELEY LAKE  N/A       34  26  73 S2G7       N/A
* THOMP F APT  PTCLDY    30  19  64 NE4G20     N/A
$$

MTZ008-052>055-231600-
SOUTHWEST MONTANA
CITY           SKY/WX    TMP DP  RH WIND       PRES   REMARKS
BOZEMAN        CLOUDY    37  28  70 W9        29.81S WCI  30
DILLON         PTSUNNY   30  19  64 W16       29.85R WCI  19
W YELLOWSTONE  N/A       30  25  82 SW4G9      N/A
* THREE FORKS  PTSUNNY   39  39 100 W10G15     N/A   WCI  32
* BOULDER HILL N/A       31  15  51 S8         N/A   WCI  24
* MONIDA PASS  N/A       23  15  71 NW12       N/A   WCI  11
* RAYNOLDS PAS N/A       26  26 100 N4         N/A
* WHITEHALL    N/A       38  24  57 SW8        N/A   WCI  32
* WISE RIVER   N/A       30  19  64 NW10G21    N/A   WCI  21
$$

MTZ009>010-012-014-046-048-049-054-231600-
EAST SLOPES AND CENTRAL MONTANA
CITY           SKY/WX    TMP DP  RH WIND       PRES   REMARKS
CUT BANK       PTCLDY    43  21  42 W30G39    29.57S
GREAT FALLS    PTCLDY    41  25  53 W23G29    29.65S
HELENA         PTSUNNY   41  25  53 W21G31    29.77R
MALMSTROM AFB  PTCLDY    43  21  42 SW21G30   29.62F
* CONRAD       PTCLDY    43  21  42 SW18G28    N/A
* DEARBORN     N/A       42  19  40 S13G24     N/A
* EAST GLACIER N/A       33  16  50 W22G40     N/A   WCI  21
* MONARCH      N/A       32  16  52 SW17G26    N/A   WCI  21
* PENDROY      N/A       39  16  39 W20G30     N/A   WCI  29
* ROGERS PASS  N/A       29  21  72 E16G29     N/A   WCI  17
* SAINT MARY   N/A       36  17  46 SW12G30    N/A   WCI  28
* SWEET GRASS  N/A       41  18  39 W31G43     N/A
* WHITE SULPH  N/A       36  21  54 W9G21      N/A   WCI  29
$$

MTZ011-013-016-021-035-040-045-047-050-051-231600-
NORTH CENTRAL MONTANA
CITY           SKY/WX    TMP DP  RH WIND       PRES   REMARKS
HAVRE          CLOUDY    45  30  56 SW18      29.56R
LEWISTOWN      CLOUDY    37  25  62 W21G36    29.65R WCI  26
* CHINOOK      CLOUDY    45  27  49 SW24G32   29.54R
* FORT BENTON  PTSUNNY   45  25  45 SW22G29   29.64R
* MALTA APT    CLOUDY    45  34  65 W15G22    29.52R
* CHESTER      N/A       41  23  49 W16G28     N/A
* DENTON       N/A       42  25  51 W26G33     N/A
* GEYSER       N/A       38  21  50 W25G34     N/A   WCI  27
* JUDITH GAP   N/A       37  25  62 W17G25     N/A   WCI  27
* LOMA         N/A       44  27  51 SW16G25    N/A
$$

MTZ017>020-022>027-061-062-231600-
NORTHEAST MONTANA
CITY           SKY/WX    TMP DP  RH WIND       PRES   REMARKS
GLASGOW        CLOUDY    43  41  93 NW21G31   29.48S
GLENDIVE       CLOUDY    48  41  77 NW26G35   29.44R
JORDAN         PTSUNNY   45  37  74 NW23G33   29.53R
SIDNEY         PTSUNNY   57  37  47 S16       29.43S
WOLF POINT     CLOUDY    48  41  77 SW9       29.43R
* BEAVER HILL  N/A       56  39  53 SE12       N/A
* CIRCLE       N/A       45  42  89 W10G30     N/A
* LINDSAY DVD  N/A       43  41  93 W31G43     N/A
* NAVAJO       N/A       52  38  59 SE17G24    N/A
* SACO         N/A       43  39  86 W22G29     N/A
* SCOBEY APT   CLOUDY    52  37  57 E14G21    29.45S
$$

MTZ028>042-056>058-231600-
SOUTHCENTRAL AND SOUTHEAST MONTANA
CITY           SKY/WX    TMP DP  RH WIND       PRES   REMARKS
BAKER          CLOUDY    52  43  72 W28G35    29.45R
BILLINGS       CLOUDY    45  27  49 W28G35    29.64R
LIVINGSTON     CLOUDY    37  34  89 W28G33    29.74S WCI  25
MILES CITY     CLOUDY    48  39  71 NW26G36   29.52R
* EKALAKA APT  CLOUDY    46  39  77 W15G23    29.53R
* LAUREL APT   CLOUDY    43  25  49 W30G40     N/A
* ROUNDUP APT  CLOUDY    43  32  65 SW13       N/A
* HYSHAM       N/A       44  32  63 NW12G24    N/A
* LAME DEER    N/A       39  36  89 NW18       N/A   WCI  30
* REED POINT   N/A       41  27  58 W32G44     N/A
* ROSCOE HILL  N/A       40  15  36 W8G19      N/A   WCI  35
$$

REGIONAL REPORTS...DAKOTAS
CITY           SKY/WX    TMP DP  RH WIND       PRES   REMARKS
WILLISTON      PTSUNNY   55  37  51 SE17G32   29.43F
DICKINSON      CLOUDY    54  36  51 SE23G35   29.42S
CROSBY         CLOUDY    48  41  77 SE26G33   29.50F
TIOGA          SUNNY     50  39  66 SE26G40   29.51F
WATFORD CITY   SUNNY     54  37  53 SE31G41   29.42R
BISMARCK       PTSUNNY   54  37  53 SE18G29   29.59S
GRAND FORKS    CLOUDY    48  30  50 SE24G31   29.87F
FARGO          LGT RAIN  45  39  80 SE25G35   29.87F
BUFFALO SD     CLOUDY    54  45  72 W21       29.41R
RAPID CITY     CLOUDY    59  46  62 E9        29.45S
$$

REGIONAL REPORTS...WYOMING/IDAHO/WASHINGTON
CITY           SKY/WX    TMP DP  RH WIND       PRES   REMARKS
GILLETTE       CLOUDY    50  39  66 W14       29.57R
SHERIDAN       LGT RAIN  43  34  71 NW22G32   29.65R
CODY           CLOUDY    43  21  42 W22G35    29.67R
YELLOWSTONE LA CLOUDY    25  18  75 W10G23    29.79R WCI  15
SALMON         CLOUDY    39  19  45 SW9       29.91S WCI  33
MULLAN PASS    SNOW      25  25 100 VRB6      29.75S VSB 1/2  WCI  18
SAND POINT     CLOUDY    36  36 100 CALM      29.84S
SPOKANE        CLOUDY    37  34  89 SW14      29.83S WCI  28
$$

REGIONAL REPORTS...ALBERTA
CITY           SKY/WX    TMP DP  RH WIND       PRES   REMARKS
CALGARY        PTSUNNY   45  37  74 N9        29.45S
LETHBRIDGE     PTSUNNY   45  14  28 W47G55    29.48F
MEDICINE HAT   PTSUNNY   45  27  49 W26G33    29.45F
EDMONTON       LGT RAIN  43  41  93 NE7       29.33S
WATERTON GATE  N/A       39  12  33 SW21G33    N/A   WCI  29
CARDSTON       N/A       41  14  33 W23G38     N/A
MILK RIVER     N/A       45  14  28 W35G47     N/A
$$

REGIONAL REPORTS...SASKATCHEWAN
CITY           SKY/WX    TMP DP  RH WIND       PRES   REMARKS
SWIFT CURRENT  LGT RAIN  41  39  93 S8        29.44S
MOOSE JAW      HVR RAIN  43  37  79 E25G31    29.49F VSB 2 1/2
REGINA         LGT RAIN  46  39  77 E25G38    29.54F
VAL MARIE      N/A       39  37  93 NW21G26    N/A   WCI  29
ASSINIBOIA     N/A       41  39  93 E14        N/A
CORONACH       N/A       50  41  71 SE15       N/A

$$




USA.gov is the U.S. government's official web portal to all federal, state and local government web resources and services.